This is the latest recevied weather packets stored in our database for station/object KO4YAW. If no packets are shown the sender has not sent any weather packets the latest 10 day(s).
| Time | Temp. | Humidity | Pressure | Rain* | Wind** | Luminosity | Snow |
|---|---|---|---|---|---|---|---|
| 1777792532 | 11.11° C | 34% | 1017.9 hPa | 0 mm | - | 0 W/m² | - |
| 1777791632 | 11.67° C | 32% | 1017.9 hPa | 0 mm | - | 0 W/m² | - |
| 1777790732 | 11.67° C | 32% | 1017.9 hPa | 0 mm | - | 0 W/m² | - |
| 1777789832 | 12.22° C | 31% | 1017.9 hPa | 0 mm | - | 0 W/m² | - |
| 1777788932 | 12.22° C | 30% | 1018 hPa | 0 mm | - | 0 W/m² | - |
| 1777788032 | 12.78° C | 29% | 1017.9 hPa | 0 mm | - | 0 W/m² | - |
| 1777787132 | 12.78° C | 28% | 1017.8 hPa | 0 mm | - | 0 W/m² | - |
| 1777786232 | 13.33° C | 27% | 1017.7 hPa | 0 mm | - | 0 W/m² | - |
| 1777785332 | 13.33° C | 26% | 1017.6 hPa | 0 mm | - | 0 W/m² | - |
| 1777784432 | 13.89° C | 25% | 1017.7 hPa | 0 mm | - | 0 W/m² | - |
| 1777783532 | 13.89° C | 25% | 1017.7 hPa | 0 mm | - | 0 W/m² | - |
| 1777782632 | 14.44° C | 25% | 1017.8 hPa | 0 mm | - | 0 W/m² | - |
| 1777781732 | 14.44° C | 25% | 1017.9 hPa | 0 mm | - | 0 W/m² | - |
| 1777780832 | 15° C | 25% | 1017.9 hPa | 0 mm | - | 0 W/m² | - |
| 1777779932 | 15° C | 26% | 1017.9 hPa | 0 mm | - | 0 W/m² | - |
| 1777779032 | 15.56° C | 26% | 1017.8 hPa | 0 mm | - | 0 W/m² | - |
| 1777778132 | 15.56° C | 25% | 1017.8 hPa | 0 mm | - | 0 W/m² | - |
| 1777777232 | 15° C | 26% | 1017.8 hPa | 0 mm | - | 0 W/m² | - |
| 1777776332 | 15° C | 27% | 1017.8 hPa | 0 mm | - | 0 W/m² | - |
| 1777775432 | 15° C | 25% | 1017.7 hPa | 0 mm | - | 0 W/m² | - |
| 1777774532 | 16.11° C | 22% | 1017.5 hPa | 0 mm | - | 0 W/m² | - |
| 1777773632 | 17.22° C | 20% | 1017.3 hPa | 0 mm | - | 2 W/m² | - |
| 1777772732 | 18.33° C | 18% | 1017.2 hPa | 0 mm | - | 10 W/m² | - |
| 1777771832 | 20° C | 16% | 1017.2 hPa | 0 mm | - | 26 W/m² | - |
| 1777770932 | 21.11° C | 15% | 1017.1 hPa | 0 mm | - | 49 W/m² | - |
* Rain since midnight (hover to see other rain measurements)
** Current wind speed in m/s (hover to see current wind gust speed)